User: anonymous   Login
Location: �perlecques
(50.8057°N, 2.1521°E)
Time: 16:47:19
(UTC+00:00)
Language:

Tiros 1 despin weight - Orbit

View from above orbital plane
View from above orbital plane
View from above satellite
View from above satellite

Ground track
Ground track

The orbit data is extracted from the following two-line orbital elements,

1   115U 60002D   21209.13982714  .00000069  00000-0  35052-4 0  9998
2   115  48.1666 123.1439 0034832 238.1935 121.5583 14.83799784273214
Epoch (UTC): 28 July 2021 03:21:21
Eccentricity: 0.0034832
inclination: 48.1666°
perigee height: 593 km
apogee height: 642 km
right ascension of ascending node: 123.1439°
argument of perigee: 238.1935°
revolutions per day: 14.83799784
mean anomaly at epoch: 121.5583°
orbit number at epoch: 27321

The dashed part of the orbit path shows where the satellite is in the earth's shadow,  

DLR